Weather History for Racine, WI

Change the Weather History Date:

Wednesday, February 13, 2013

  Actual Average Record
Temperature  
Mean Temperature 29 °F -  
Max Temperature 39 °F 31 °F 54 °F (1976)
Min Temperature 19 °F 17 °F -5 °F (1955)
Degree Days  
Heating Degree Days 36    
Moisture  
Dew Point 24 °F    
Average Humidity 78    
Maximum Humidity 92    
Minimum Humidity 57    
Precipitation  
Precipitation 0.00 in - - ()
Sea Level Pressure  
Sea Level Pressure 29.79 in    
Wind  
Wind Speed 6 mph (SW)    
Max Wind Speed 9 mph    
Max Gust Speed -    
Visibility 8 miles    
Events      
Averages and records for this station are not official NWS values.
T = Trace of Precipitation, MM = Missing Value Source: NWS Daily Summary

Daily Weather History Graph

Daily Weather History Graph

Search for Another Location

Airport:

Trip Planner

Search our weather history database for the weather conditions in past years. The results will help you decide how hot, cold, wet, or windy it might be!

Date:

Astronomy

Feb. 13, 2013 Rise Set
Actual Time 6:50 AM CST 5:20 PM CST
Civil Twilight 6:21 AM CST 5:49 PM CST
Nautical Twilight 5:48 AM CST 6:23 PM CST
Astronomical Twilight 5:15 AM CST 6:55 PM CST
Moon 8:13 AM CST (2/13) 9:30 PM CST (2/13)
Length of Visible Light 11h 28m
Length of Day
10h 29m
Waxing Crescent, 14% of the Moon is Illuminated
Feb 13
Waxing Crescent
Feb 17
First Quarter
Feb 25
Full
Mar 4
Last Quarter
Mar 11
New

Hourly Weather History & Observations

Time (CST) Temp. Windchill Dew Point Humidity Pressure Visibility Wind Dir Wind Speed Gust Speed Precip Events Conditions
12:53 AM 21.9 °F 14.5 °F 18.0 °F 85% 29.90 in 7.0 mi SW 5.8 mph - N/A   Clear
1:53 AM 21.0 °F 14.6 °F 18.0 °F 88% 29.89 in 6.0 mi SSW 4.6 mph - N/A   Clear
2:53 AM 21.0 °F 13.4 °F 18.0 °F 88% 29.87 in 6.0 mi SSW 5.8 mph - N/A   Clear
3:53 AM 21.9 °F 13.4 °F 19.0 °F 89% 29.85 in 6.0 mi SSW 6.9 mph - N/A   Clear
4:53 AM 21.0 °F 16.2 °F 19.0 °F 92% 29.84 in 6.0 mi South 3.5 mph - N/A   Clear
5:53 AM 19.0 °F 12.3 °F 17.1 °F 92% 29.83 in 5.0 mi SSW 4.6 mph - N/A   Clear
6:53 AM 21.9 °F 15.7 °F 19.0 °F 89% 29.82 in 4.0 mi SW 4.6 mph - N/A   Clear
7:53 AM 25.0 °F 17.1 °F 21.9 °F 88% 29.81 in 4.0 mi SW 6.9 mph - N/A   Clear
8:53 AM 28.0 °F 21.7 °F 24.1 °F 85% 29.81 in 5.0 mi West 5.8 mph - N/A   Clear
9:53 AM 30.9 °F 23.5 °F 25.0 °F 79% 29.80 in 6.0 mi West 8.1 mph - N/A   Haze
10:53 AM 35.1 °F 30.1 °F 26.1 °F 70% 29.79 in 7.0 mi SW 5.8 mph - N/A   Clear
11:53 AM 37.0 °F 31.0 °F 26.1 °F 65% 29.77 in 9.0 mi SW 8.1 mph - N/A   Scattered Clouds
12:53 PM 39.0 °F 33.4 °F 27.0 °F 62% 29.74 in 9.0 mi West 8.1 mph - N/A   Clear
1:53 PM 39.0 °F 32.8 °F 25.0 °F 57% 29.73 in 10.0 mi WSW 9.2 mph - N/A   Mostly Cloudy
2:53 PM 39.0 °F 33.4 °F 26.1 °F 60% 29.73 in 10.0 mi WSW 8.1 mph - N/A   Scattered Clouds
3:53 PM 39.0 °F 33.4 °F 27.0 °F 62% 29.73 in 9.0 mi WSW 8.1 mph - N/A   Scattered Clouds
4:53 PM 37.0 °F 31.6 °F 27.0 °F 67% 29.74 in 9.0 mi West 6.9 mph - N/A   Clear
5:53 PM 36.0 °F 31.1 °F 27.0 °F 70% 29.75 in 9.0 mi WSW 5.8 mph - N/A   Clear
6:53 PM 33.1 °F 28.7 °F 27.0 °F 78% 29.76 in 9.0 mi WSW 4.6 mph - N/A   Clear
7:53 PM 32.0 °F 26.4 °F 27.0 °F 82% 29.76 in 8.0 mi WSW 5.8 mph - N/A   Clear
8:53 PM 33.1 °F 27.7 °F 27.0 °F 78% 29.75 in 9.0 mi WSW 5.8 mph - N/A   Overcast
9:53 PM 33.1 °F 30.0 °F 28.0 °F 82% 29.75 in 9.0 mi West 3.5 mph - N/A   Overcast
10:53 PM 34.0 °F 28.0 °F 28.9 °F 82% 29.74 in 8.0 mi WSW 6.9 mph - N/A   Mostly Cloudy
11:53 PM 34.0 °F 27.2 °F 28.9 °F 82% 29.73 in 9.0 mi SW 8.1 mph - N/A   Overcast